| time (UTC) | temp F | wind direction | speed knots | gust knots | rain 1hr in | rain 24hr in | rain mn in | humidity % | barometer mb |
| 20260503223135 | 79 | 344 | 3.5 | 7.0 | 0.00 | 0.00 | 0.00 | 42 | 1011.4 |
| 20260503222134 | 79 | 73 | 3.5 | 7.0 | 0.00 | 0.00 | 0.00 | 43 | 1011.5 |
| 20260503221135 | 79 | 323 | 2.6 | 7.8 | 0.00 | 0.00 | 0.00 | 43 | 1011.6 |
| 20260503220156 | 78 | 341 | 0.9 | 7.8 | 0.00 | 0.00 | 0.00 | 44 | 1011.7 |
| 20260503215130 | 78 | 340 | 5.2 | 7.8 | 0.00 | 0.00 | 0.00 | 44 | 1011.9 |
| 20260503214131 | 78 | 330 | 3.5 | 7.8 | 0.00 | 0.00 | 0.00 | 46 | 1012.0 |
| 20260503213132 | 78 | 11 | 3.5 | 7.0 | 0.00 | 0.00 | 0.00 | 45 | 1012.1 |
| 20260503212133 | 78 | 13 | 1.7 | 8.7 | 0.00 | 0.00 | 0.00 | 46 | 1012.2 |
| 20260503211133 | 77 | 38 | 0.9 | 7.0 | 0.00 | 0.00 | 0.00 | 46 | 1012.3 |
| 20260503210136 | 77 | 53 | 0.0 | 8.7 | 0.00 | 0.00 | 0.00 | 46 | 1012.4 |
| 20260503205126 | 77 | 51 | 1.7 | 9.6 | 0.00 | 0.00 | 0.00 | 48 | 1012.5 |
| 20260503204123 | 76 | 19 | 2.6 | 8.7 | 0.00 | 0.00 | 0.00 | 50 | 1012.5 |
| 20260503203140 | 75 | 55 | 1.7 | 7.8 | 0.00 | 0.00 | 0.00 | 51 | 1012.8 |
| 20260503202124 | 74 | 346 | 6.1 | 10.4 | 0.00 | 0.00 | 0.00 | 52 | 1012.9 |
| 20260503201123 | 74 | 339 | 3.5 | 8.7 | 0.00 | 0.00 | 0.00 | 51 | 1013.1 |
| 20260503200144 | 74 | 338 | 0.9 | 9.6 | 0.00 | 0.00 | 0.00 | 52 | 1013.2 |
| 20260503195135 | 75 | 333 | 1.7 | 6.1 | 0.00 | 0.00 | 0.00 | 53 | 1013.3 |
| 20260503194134 | 74 | 63 | 4.3 | 6.1 | 0.00 | 0.00 | 0.00 | 56 | 1013.4 |
| 20260503193133 | 72 | 14 | 2.6 | 8.7 | 0.00 | 0.00 | 0.00 | 58 | 1013.5 |
| 20260503192133 | 72 | 29 | 1.7 | 6.1 | 0.00 | 0.00 | 0.00 | 59 | 1013.7 |
| 20260503191131 | 71 | 37 | 1.7 | 7.0 | 0.00 | 0.00 | 0.00 | 60 | 1013.7 |
| 20260503190143 | 71 | 360 | 4.3 | 7.0 | 0.00 | 0.00 | 0.00 | 59 | 1013.8 |
| 20260503185135 | 72 | 327 | 0.9 | 7.8 | 0.00 | 0.00 | 0.00 | 59 | 1013.8 |
| 20260503184135 | 71 | 355 | 2.6 | 6.1 | 0.00 | 0.00 | 0.00 | 58 | 1014.0 |
| 20260503183134 | 70 | 348 | 3.5 | 8.7 | 0.00 | 0.00 | 0.00 | 59 | 1014.1 |
| 20260503182133 | 70 | 355 | 3.5 | 7.8 | 0.00 | 0.00 | 0.00 | 59 | 1014.2 |
| 20260503181134 | 70 | 15 | 0.9 | 6.1 | 0.00 | 0.00 | 0.00 | 59 | 1014.2 |
| 20260503180153 | 69 | 340 | 0.9 | 7.8 | 0.00 | 0.00 | 0.00 | 62 | 1014.3 |
| 20260503175133 | 69 | 350 | 0.0 | 7.8 | 0.00 | 0.00 | 0.00 | 62 | 1014.4 |
| 20260503174132 | 68 | 345 | 2.6 | 7.0 | 0.00 | 0.00 | 0.00 | 63 | 1014.4 |
| 20260503173134 | 68 | 360 | 3.5 | 7.8 | 0.00 | 0.00 | 0.00 | 63 | 1014.4 |
| 20260503172129 | 67 | 355 | 2.6 | 8.7 | 0.00 | 0.00 | 0.00 | 64 | 1014.5 |
| 20260503171131 | 67 | 9 | 0.9 | 7.8 | 0.00 | 0.00 | 0.00 | 65 | 1014.5 |
| 20260503170123 | 66 | 12 | 2.6 | 9.6 | 0.00 | 0.00 | 0.00 | 66 | 1014.6 |
| 20260503160151 | 64 | 12 | 0.0 | 6.1 | 0.00 | 0.00 | 0.00 | 67 | 1014.7 |
| 20260503150138 | 63 | 342 | 1.7 | 7.0 | 0.00 | 0.00 | 0.00 | 70 | 1014.7 |
| 20260503140149 | 54 | 57 | 0.0 | 0.0 | 0.00 | 0.00 | 0.00 | 90 | 1014.4 |
| 20260503131124 | 51 | 57 | 0.0 | 0.0 | 0.00 | 0.00 | 0.00 | 88 | 1014.3 |
| 20260503130145 | 51 | 57 | 0.0 | 0.0 | 0.00 | 0.00 | 0.00 | 87 | 1014.3 |
| 20260503120138 | 53 | 57 | 0.0 | 0.0 | 0.00 | 0.00 | 0.00 | 82 | 1014.4 |
| 20260503110154 | 54 | 57 | 0.0 | 0.0 | 0.00 | 0.00 | 0.00 | 79 | 1014.4 |
| 20260503100146 | 58 | 57 | 0.0 | 0.0 | 0.00 | 0.00 | 0.00 | 71 | 1014.6 |
| 20260503090138 | 62 | 61 | 0.0 | 0.0 | 0.00 | 0.00 | 0.00 | 62 | 1014.6 |
| 20260503081131 | 62 | 38 | 0.0 | 0.0 | 0.00 | 0.00 | 0.00 | 60 | 1014.8 |
| 20260503080133 | 63 | 37 | 0.0 | 0.0 | 0.00 | 0.00 | 0.00 | 59 | 1014.8 |
| 20260503072136 | 63 | 38 | 0.0 | 0.0 | 0.00 | 0.00 | 0.00 | 59 | 1014.7 |
| 20260503071136 | 63 | 38 | 0.0 | 0.0 | 0.00 | 0.00 | 0.00 | 59 | 1014.7 |
| 20260503070157 | 63 | 37 | 0.0 | 0.0 | 0.00 | 0.00 | 0.00 | 59 | 1014.8 |
| 20260503060154 | 62 | 86 | 0.0 | 0.0 | 0.00 | 0.00 | 0.00 | 66 | 1014.5 |
| 20260503055123 | 61 | 40 | 0.0 | 0.0 | 0.00 | 0.00 | 0.00 | 68 | 1014.5 |
| 20260503054140 | 61 | 40 | 0.0 | 0.0 | 0.00 | 0.00 | 0.00 | 69 | 1014.5 |
| 20260503053141 | 62 | 40 | 0.0 | 0.0 | 0.00 | 0.00 | 0.00 | 69 | 1014.5 |
| 20260503052128 | 63 | 40 | 0.0 | 0.0 | 0.00 | 0.00 | 0.00 | 67 | 1014.5 |
| 20260503051130 | 63 | 40 | 0.0 | 0.0 | 0.00 | 0.00 | 0.00 | 66 | 1014.5 |
| 20260503050142 | 63 | 40 | 0.0 | 0.0 | 0.00 | 0.00 | 0.00 | 66 | 1014.4 |
| 20260503045135 | 64 | 38 | 0.0 | 0.0 | 0.00 | 0.00 | 0.00 | 65 | 1014.3 |
| 20260503044137 | 64 | 39 | 0.0 | 0.0 | 0.00 | 0.00 | 0.00 | 65 | 1014.2 |
| 20260503043141 | 64 | 44 | 0.0 | 0.0 | 0.00 | 0.00 | 0.00 | 64 | 1014.2 |
| 20260503042136 | 64 | 37 | 0.0 | 0.0 | 0.00 | 0.00 | 0.00 | 64 | 1014.1 |
| 20260503041140 | 64 | 28 | 0.0 | 0.0 | 0.00 | 0.00 | 0.00 | 64 | 1013.9 |
| 20260503040140 | 64 | 24 | 0.0 | 0.0 | 0.00 | 0.00 | 0.00 | 63 | 1013.9 |
| 20260503035135 | 65 | 36 | 0.0 | 0.0 | 0.00 | 0.00 | 0.00 | 63 | 1013.8 |
| 20260503034131 | 65 | 43 | 0.0 | 6.1 | 0.00 | 0.00 | 0.00 | 63 | 1013.6 |
| 20260503033131 | 66 | 64 | 0.9 | 5.2 | 0.00 | 0.00 | 0.00 | 62 | 1013.4 |
| 20260503032133 | 66 | 17 | 0.9 | 6.1 | 0.00 | 0.00 | 0.00 | 61 | 1013.3 |
| 20260503031140 | 66 | 63 | 0.0 | 0.0 | 0.00 | 0.00 | 0.00 | 60 | 1013.3 |
| 20260503030140 | 67 | 68 | 0.0 | 6.1 | 0.00 | 0.00 | 0.00 | 58 | 1013.2 |
| 20260503025127 | 68 | 36 | 1.7 | 8.7 | 0.00 | 0.00 | 0.00 | 56 | 1013.1 |
| 20260503024129 | 69 | 355 | 3.5 | 13.0 | 0.00 | 0.00 | 0.00 | 55 | 1013.1 |
| 20260503023131 | 69 | 13 | 4.3 | 18.2 | 0.00 | 0.00 | 0.00 | 54 | 1013.1 |
| 20260503022133 | 69 | 340 | 7.0 | 15.6 | 0.00 | 0.00 | 0.00 | 54 | 1013.0 |
| 20260503021132 | 69 | 9 | 7.0 | 12.2 | 0.00 | 0.00 | 0.00 | 54 | 1013.0 |
| 20260503020151 | 69 | 347 | 6.1 | 11.3 | 0.00 | 0.00 | 0.00 | 54 | 1013.0 |
| 20260503015141 | 69 | 306 | 4.3 | 13.9 | 0.00 | 0.00 | 0.00 | 54 | 1013.0 |
| 20260503014142 | 70 | 355 | 3.5 | 11.3 | 0.00 | 0.00 | 0.00 | 55 | 1013.0 |
| 20260503013137 | 70 | 340 | 2.6 | 10.4 | 0.00 | 0.00 | 0.00 | 55 | 1013.0 |
| 20260503012138 | 70 | 77 | 0.9 | 8.7 | 0.00 | 0.00 | 0.00 | 56 | 1013.2 |
| 20260503011142 | 70 | 30 | 2.6 | 11.3 | 0.00 | 0.00 | 0.00 | 55 | 1013.2 |
| 20260503010142 | 70 | 38 | 1.7 | 6.1 | 0.00 | 0.00 | 0.00 | 55 | 1013.2 |
| 20260503005133 | 71 | 47 | 4.3 | 12.2 | 0.00 | 0.00 | 0.00 | 55 | 1013.3 |
| 20260503004138 | 71 | 5 | 2.6 | 11.3 | 0.00 | 0.00 | 0.00 | 55 | 1013.3 |
| 20260503003140 | 71 | 11 | 4.3 | 11.3 | 0.00 | 0.00 | 0.00 | 53 | 1013.4 |
| 20260503002125 | 71 | 360 | 6.1 | 11.3 | 0.00 | 0.00 | 0.00 | 53 | 1013.4 |
| 20260503001125 | 71 | 10 | 8.7 | 11.3 | 0.00 | 0.00 | 0.00 | 52 | 1013.5 |
| 20260503000143 | 71 | 9 | 6.1 | 13.0 | 0.00 | 0.00 | 0.00 | 54 | 1013.5 |
| 20260502235134 | 71 | 14 | 7.0 | 11.3 | 0.00 | 0.00 | 0.00 | 54 | 1013.6 |
| 20260502234135 | 71 | 326 | 5.2 | 12.2 | 0.00 | 0.00 | 0.00 | 55 | 1013.8 |
| 20260502233135 | 71 | 351 | 4.3 | 11.3 | 0.00 | 0.00 | 0.00 | 53 | 1014.0 |
| 20260502232134 | 71 | 26 | 7.0 | 15.6 | 0.00 | 0.00 | 0.00 | 53 | 1014.0 |
| 20260502231133 | 71 | 355 | 1.7 | 13.9 | 0.00 | 0.00 | 0.00 | 55 | 1014.1 |
| 20260502230154 | 71 | 343 | 5.2 | 15.6 | 0.00 | 0.00 | 0.00 | 53 | 1014.3 |
| 20260502225129 | 72 | 346 | 7.8 | 13.0 | 0.00 | 0.00 | 0.00 | 52 | 1014.6 |
| 20260502224124 | 71 | 338 | 5.2 | 11.3 | 0.00 | 0.00 | 0.00 | 56 | 1014.8 |